Weather Roundup
Issued by NWS

Home | Current Version | Previous Version | Graphics & Text | Print | Product List | Glossary Off
Versions: 1 2 3 4 5 6 7 8 9 10 11 12 13 14 15 16 17 18 19 20 21 22 23 24 25 26 27 28 29 30 31 32 33 34 35 36 37 38 39 40 41 42 43 44 45 46 47 48 49 50

000
NZUS93 KARX 251410
HRRWXR

CURRENT HOURLY OBSERVATIONS ACROSS
MUCH OF THE UPPER MISSISSIPPI VALLEY
NATIONAL WEATHER SERVICE LA CROSSE WI
900 AM CDT SAT APR 25 2015


...SOUTHEAST MINNESOTA...


CITY           SKY/WX    TMP DP  RH WIND       PRES   REMARKS
ROCHESTER      CLOUDY    42  37  82 E15       29.79S
ROCHESTER/MAYO CLOUDY    42  38  84 E12G21    29.80S
WINONA         NOT AVBL
AUSTIN         CLOUDY    43  37  81 E17       29.76R
ALBERT LEA     CLOUDY    43  37  81 E15       29.76R
DODGE CENTER   PTSUNNY   43  39  87 E18G24    29.79R
PRESTON        CLOUDY    41  35  79 E13G20    29.79S
OWATONNA       PTSUNNY   43  37  81 E16G22    29.79R
FARIBAULT      CLOUDY    43  37  81 E12G17    29.81R
$$

...ELSEWHERE IN MINNESOTA...


CITY           SKY/WX    TMP DP  RH WIND       PRES   REMARKS
MINNEAPOLIS    CLOUDY    44  37  76 E9        29.85R
INTNL FALLS    CLOUDY    40  17  39 E12       29.97S WCI  33
DULUTH         CLOUDY    36  23  59 E15       29.95R WCI  27
RED WING       PTSUNNY   45  36  70 E13       29.84R
REDWOOD FALLS  CLOUDY    44  37  76 E12G21    29.80R
MANKATO        CLOUDY    45  36  70 E13       29.79S
WORTHINGTON    CLOUDY    43  36  75 E18       29.74S
FAIRMONT       CLOUDY    43  10  26 E14       29.75S
$$

...SOUTHWEST WISCONSIN...


CITY           SKY/WX    TMP DP  RH WIND       PRES   REMARKS
LA CROSSE      CLOUDY    43  36  76 E9        29.83S
PRAIRIE DU CHI CLOUDY    44  34  69 E12G18    29.79R
BOSCOBEL       CLOUDY    45  35  68 E13G18    29.81S
LONE ROCK      CLOUDY    43  36  76 E14       29.82F
PLATTEVILLE    CLOUDY    44  37  78 E20       29.76F
FORT MC COY    CLOUDY    41  35  79 E12G18    29.85S
CAMP DOUGLAS   CLOUDY    41  41 100 E14       29.85F
VIROQUA        CLOUDY    41  37  87 E13       29.80S
WIS DELLS      CLOUDY    40  35  80 E10       29.84F WCI  34
$$

...ELSEWHERE IN WISCONSIN...


CITY           SKY/WX    TMP DP  RH WIND       PRES   REMARKS
MILWAUKEE      CLOUDY    40  35  83 NE12      29.87S WCI  33
MADISON        CLOUDY    43  36  76 E20G25    29.83F
GREEN BAY      CLOUDY    43  26  51 NE15      29.94F
EAU CLAIRE     PTSUNNY   45  26  47 E12       29.87S
BLACK RVR FLS  CLOUDY    42  34  73 E12       29.86S
MEDFORD        CLOUDY    40  18  40 E13G18    29.90S WCI  33
WAUSAU         CLOUDY    40  19  43 E10       29.90S WCI  33
WIS RAPIDS     CLOUDY    41  25  53 E12       29.89F
MARSHFIELD     MOSUNNY   42  25  50 E13       29.88F
RICE LAKE      PTSUNNY   43  22  43 E10G17    29.91S
$$

...NORTHEAST IOWA...


CITY           SKY/WX    TMP DP  RH WIND       PRES   REMARKS
DECORAH        CLOUDY    43  36  75 E16G22    29.77R
MASON CITY     CLOUDY    42  37  82 E17       29.74R
CHARLES CITY   CLOUDY    43  39  87 E18       29.75R
OELWEIN        CLOUDY    43  37  81 E22G29    29.71F
$$

...ELSEWHERE IN IOWA...


CITY           SKY/WX    TMP DP  RH WIND       PRES   REMARKS
DES MOINES     LGT RAIN  45  42  89 E22G32    29.58F FOG
IOWA CITY      LGT RAIN  44  42  93 NE14G24   29.66R FOG
FORT DODGE     CLOUDY    43  37  81 E21       29.68S
$$

...NORTHERN ILLINOIS...


CITY           SKY/WX    TMP DP  RH WIND       PRES   REMARKS
CHICAGO-OHARE  LGT RAIN  43  39  86 E14       29.78F
CHICAGO-MIDWAY LGT RAIN  45  40  82 E13       29.79F
MOLINE         LGT RAIN  44  41  89 E21       29.65F FOG
ROCKFORD       CLOUDY    45  37  73 E15       29.78F
PEORIA         RAIN      48  45  89 E23       29.60F FOG
$$

NOTE: "FAIR" INDICATES FEW OR NO CLOUDS BELOW 12,000 FEET WITH NO
SIGNIFICANT WEATHER AND/OR OBSTRUCTIONS TO VISIBILITY. WIND
SPEEDS ARE IN MILES-PER-HOUR.



USA.gov is the U.S. government's official web portal to all federal, state and local government web resources and services.